MMS 2

Last updated on Thu Dec 18 2025 00:02:41 GMT+0000 (Coordinated Universal Time)

1 40483U 15011B 25351.66670139 -.00000472 00000+0 00000+0 0 9993 2 40483 69.3414 351.4704 8502602 163.4530 144.0157 0.28360025 1387
UTC large
Height (km)
Speed (km/s)
/
Latitude / Longitude
Inclination (degrees)
Orbital Period (minutes)
Azimuth
Elevation
Range (km)
Doppler Factor

Next 0 passes for location: London (51.5072 / 0.1276)

Sorry there are no passes over London.